Regional Weather Roundup
Issued by NWS

Home | Current Version | Previous Version | Graphics & Text | Print | Product List | Glossary On
Versions: 1 2 3 4 5 6 7 8 9 10 11 12 13 14 15 16 17 18 19 20 21 22 23 24 25 26 27 28 29 30 31 32 33 34 35 36 37 38 39 40 41 42 43 44 45 46 47 48 49 50
000
ASUS43 KBIS 190220
RWRND

NORTH DAKOTA REGIONAL WEATHER ROUNDUP
NATIONAL WEATHER SERVICE BISMARCK ND
900 PM CDT THU SEP 18 2014

NOTE: "FAIR" INDICATES FEW OR NO CLOUDS BELOW 12,000 FEET WITH NO
SIGNIFICANT WEATHER AND/OR OBSTRUCTIONS TO VISIBILITY.


NDZ001>003-009>011-017-190300-
NORTHWEST NORTH DAKOTA

CITY           SKY/WX    TMP DP  RH WIND       PRES   REMARKS
WILLISTON      CLOUDY    70  53  54 S6        29.59S
MINOT          CLOUDY    75  61  61 S17       29.56F
MINOT AFB      CLOUDY    74  62  68 SW12      29.55F
$$

NDZ018>021-031>035-040>046-190300-
SOUTHWEST NORTH DAKOTA

CITY           SKY/WX    TMP DP  RH WIND       PRES   REMARKS
BISMARCK       CLOUDY    71  63  75 E12       29.65F
DICKINSON      CLOUDY    69  60  73 S13       29.67S
GARRISON         N/A     71  64  78 S9        29.60F
HETTINGER ARPT CLOUDY    71  62  73 SE10      29.71S
$$

NDZ004>008-012>016-024-026-027-054-190300-
NORTHEAST NORTH DAKOTA

CITY           SKY/WX    TMP DP  RH WIND       PRES   REMARKS
GRAND FORKS    CLOUDY    68  60  75 S13       29.71S
GRND FRKS AFB  CLOUDY    68  63  82 S16       29.71S
DEVILS LAKE    CLOUDY    70  57  64 S13G18    29.65R
$$

NDZ022-023-025-028>030-036>039-047>053-190300-
SOUTHEAST NORTH DAKOTA

CITY           SKY/WX    TMP DP  RH WIND       PRES   REMARKS
FARGO          MOCLDY    71  56  58 S15G25    29.77R
JAMESTOWN      MOCLDY    68  60  75 S14       29.72F
$$



USA.gov is the U.S. government's official web portal to all federal, state and local government web resources and services.